Time,TemperatureF,DewpointF,PressureIn,WindDirection,WindDirectionDegrees,WindSpeedMPH,WindSpeedGustMPH,Humidity,HourlyPrecipIn,Conditions,Clouds,dailyrainin,SoftwareType,DateUTC
2013-01-26 00:00:00,3.0,-4.2,30.07,ENE,67,2.0,2.9,71,0.00,,,0.00,WUHU21623XXSP,2013-01-26 05:00:00,
2013-01-26 00:01:00,3.0,-4.2,30.07,ENE,67,2.0,2.9,71,0.00,,,0.00,WUHU21623XXSP,2013-01-26 05:01:00,
2013-01-26 00:03:00,3.0,-4.2,30.08,ENE,67,1.3,2.7,71,0.00,,,0.00,WUHU21623XXSP,2013-01-26 05:03:00,
2013-01-26 00:08:00,2.8,-4.4,30.08,ENE,67,2.9,3.1,71,0.00,,,0.00,WUHU21623XXSP,2013-01-26 05:08:00,
2013-01-26 00:13:00,2.5,-4.7,30.08,ENE,67,2.1,3.4,71,0.00,,,0.00,WUHU21623XXSP,2013-01-26 05:13:00,
2013-01-26 00:18:00,2.3,-4.6,30.08,ENE,67,0.0,3.4,72,0.00,,,0.00,WUHU21623XXSP,2013-01-26 05:18:00,
2013-01-26 00:23:00,1.9,-5.0,30.07,ENE,67,0.0,0.7,72,0.00,,,0.00,WUHU21623XXSP,2013-01-26 05:23:00,
2013-01-26 00:28:00,1.8,-5.1,30.07,ENE,67,0.0,0.0,72,0.00,,,0.00,WUHU21623XXSP,2013-01-26 05:28:00,
2013-01-26 00:33:00,1.6,-5.3,30.07,ENE,67,2.9,3.1,72,0.00,,,0.00,WUHU21623XXSP,2013-01-26 05:33:00,
2013-01-26 00:38:00,1.2,-5.7,30.07,ENE,67,0.3,3.1,72,0.00,,,0.00,WUHU21623XXSP,2013-01-26 05:38:00,
2013-01-26 00:43:00,1.2,-5.7,30.08,ENE,67,3.1,3.8,72,0.00,,,0.00,WUHU21623XXSP,2013-01-26 05:43:00,
2013-01-26 00:48:00,1.2,-5.7,30.07,ENE,67,3.2,3.8,72,0.00,,,0.00,WUHU21623XXSP,2013-01-26 05:48:00,
2013-01-26 00:53:00,1.2,-5.7,30.07,ENE,67,2.7,4.0,72,0.00,,,0.00,WUHU21623XXSP,2013-01-26 05:53:00,
2013-01-26 00:58:00,1.2,-5.7,30.08,ENE,67,1.9,4.0,72,0.00,,,0.00,WUHU21623XXSP,2013-01-26 05:58:00,
2013-01-26 01:03:00,1.2,-5.4,30.08,ENE,67,0.7,3.1,73,0.00,,,0.00,WUHU21623XXSP,2013-01-26 06:03:00,
2013-01-26 01:08:00,1.2,-5.7,30.07,ENE,67,0.0,1.1,72,0.00,,,0.00,WUHU21623XXSP,2013-01-26 06:08:00,
2013-01-26 01:13:00,1.2,-5.7,30.07,ENE,67,0.0,0.0,72,0.00,,,0.00,WUHU21623XXSP,2013-01-26 06:13:00,
2013-01-26 01:18:00,1.2,-5.7,30.07,ENE,67,0.0,0.0,72,0.00,,,0.00,WUHU21623XXSP,2013-01-26 06:18:00,
2013-01-26 01:23:00,0.9,-6.0,30.07,ENE,67,0.0,0.0,72,0.00,,,0.00,WUHU21623XXSP,2013-01-26 06:23:00,
2013-01-26 01:28:00,0.7,-6.2,30.07,ENE,67,0.0,0.0,72,0.00,,,0.00,WUHU21623XXSP,2013-01-26 06:28:00,
2013-01-26 01:33:00,0.7,-6.2,30.07,ENE,67,0.0,0.0,72,0.00,,,0.00,WUHU21623XXSP,2013-01-26 06:33:00,
2013-01-26 01:38:00,0.7,-6.2,30.08,ESE,112,0.0,0.0,72,0.00,,,0.00,WUHU21623XXSP,2013-01-26 06:38:00,
2013-01-26 01:43:00,0.7,-6.2,30.08,ESE,112,0.0,0.0,72,0.00,,,0.00,WUHU21623XXSP,2013-01-26 06:43:00,
2013-01-26 01:48:00,0.9,-6.0,30.08,ESE,112,0.0,0.0,72,0.00,,,0.00,WUHU21623XXSP,2013-01-26 06:48:00,
2013-01-26 01:53:00,1.0,-5.9,30.08,ESE,112,0.0,0.0,72,0.00,,,0.00,WUHU21623XXSP,2013-01-26 06:53:00,
2013-01-26 01:59:00,1.2,-5.4,30.08,East,90,0.0,0.0,73,0.00,,,0.00,WUHU21623XXSP,2013-01-26 06:59:00,
2013-01-26 02:04:00,1.2,-5.4,30.08,East,90,0.0,0.0,73,0.00,,,0.00,WUHU21623XXSP,2013-01-26 07:04:00,
2013-01-26 02:09:00,1.2,-5.4,30.08,East,90,0.0,0.0,73,0.00,,,0.00,WUHU21623XXSP,2013-01-26 07:09:00,
2013-01-26 02:14:00,1.0,-5.6,30.08,East,90,0.0,0.0,73,0.00,,,0.00,WUHU21623XXSP,2013-01-26 07:14:00,
2013-01-26 02:19:00,1.0,-5.6,30.08,ESE,112,0.0,0.0,73,0.00,,,0.00,WUHU21623XXSP,2013-01-26 07:19:00,
2013-01-26 02:24:00,1.0,-5.6,30.08,East,90,0.0,0.0,73,0.00,,,0.00,WUHU21623XXSP,2013-01-26 07:24:00,
2013-01-26 02:29:00,1.0,-5.6,30.08,ENE,67,1.8,2.7,73,0.00,,,0.00,WUHU21623XXSP,2013-01-26 07:29:00,
2013-01-26 02:34:00,1.0,-5.6,30.08,ENE,67,0.0,2.7,73,0.00,,,0.00,WUHU21623XXSP,2013-01-26 07:34:00,
2013-01-26 02:39:00,1.0,-5.6,30.08,ENE,67,0.0,0.7,73,0.00,,,0.00,WUHU21623XXSP,2013-01-26 07:39:00,
2013-01-26 02:44:00,1.2,-5.4,30.08,ENE,67,0.0,0.0,73,0.00,,,0.00,WUHU21623XXSP,2013-01-26 07:44:00,
2013-01-26 02:49:00,1.2,-5.4,30.08,ENE,67,0.0,0.0,73,0.00,,,0.00,WUHU21623XXSP,2013-01-26 07:49:00,
2013-01-26 02:54:00,1.2,-5.4,30.09,ENE,67,0.0,0.0,73,0.00,,,0.00,WUHU21623XXSP,2013-01-26 07:54:00,
2013-01-26 02:59:00,1.2,-5.4,30.08,ENE,67,0.0,0.0,73,0.00,,,0.00,WUHU21623XXSP,2013-01-26 07:59:00,
2013-01-26 03:04:00,1.2,-5.4,30.08,ENE,67,0.0,0.0,73,0.00,,,0.00,WUHU21623XXSP,2013-01-26 08:04:00,
2013-01-26 03:10:00,1.2,-5.4,30.08,ENE,67,0.0,0.0,73,0.00,,,0.00,WUHU21623XXSP,2013-01-26 08:10:00,
2013-01-26 03:15:00,1.2,-5.4,30.09,ENE,67,0.0,0.0,73,0.00,,,0.00,WUHU21623XXSP,2013-01-26 08:15:00,
2013-01-26 03:20:00,1.2,-5.4,30.08,ENE,67,0.0,0.0,73,0.00,,,0.00,WUHU21623XXSP,2013-01-26 08:20:00,
2013-01-26 03:25:00,1.2,-5.4,30.09,ENE,67,0.0,0.0,73,0.00,,,0.00,WUHU21623XXSP,2013-01-26 08:25:00,
2013-01-26 03:30:00,1.0,-5.6,30.09,ENE,67,0.0,0.0,73,0.00,,,0.00,WUHU21623XXSP,2013-01-26 08:30:00,
2013-01-26 03:35:00,1.0,-5.6,30.09,ENE,67,0.0,0.0,73,0.00,,,0.00,WUHU21623XXSP,2013-01-26 08:35:00,
2013-01-26 03:40:00,0.7,-5.9,30.09,ENE,67,0.0,0.0,73,0.00,,,0.00,WUHU21623XXSP,2013-01-26 08:40:00,
2013-01-26 03:45:00,0.9,-5.7,30.09,ENE,67,0.0,0.0,73,0.00,,,0.00,WUHU21623XXSP,2013-01-26 08:45:00,
2013-01-26 03:50:00,1.0,-5.6,30.09,ENE,67,0.0,0.0,73,0.00,,,0.00,WUHU21623XXSP,2013-01-26 08:50:00,
2013-01-26 03:55:00,1.2,-5.4,30.09,ENE,67,0.0,0.0,73,0.00,,,0.00,WUHU21623XXSP,2013-01-26 08:55:00,
2013-01-26 04:00:00,1.2,-5.4,30.09,ENE,67,2.5,3.1,73,0.00,,,0.00,WUHU21623XXSP,2013-01-26 09:00:00,
2013-01-26 04:05:00,1.2,-5.4,30.09,ENE,67,2.5,3.1,73,0.00,,,0.00,WUHU21623XXSP,2013-01-26 09:05:00,
2013-01-26 04:10:00,1.0,-5.6,30.10,SE,135,0.0,2.5,73,0.00,,,0.00,WUHU21623XXSP,2013-01-26 09:10:00,
2013-01-26 04:15:00,0.9,-5.7,30.10,ENE,67,0.0,0.0,73,0.00,,,0.00,WUHU21623XXSP,2013-01-26 09:15:00,
2013-01-26 04:20:00,0.7,-5.9,30.10,ENE,67,0.0,0.0,73,0.00,,,0.00,WUHU21623XXSP,2013-01-26 09:20:00,
2013-01-26 04:25:00,0.7,-5.9,30.10,ENE,67,0.0,0.0,73,0.00,,,0.00,WUHU21623XXSP,2013-01-26 09:25:00,
2013-01-26 04:30:00,0.7,-5.9,30.10,ENE,67,0.0,0.0,73,0.00,,,0.00,WUHU21623XXSP,2013-01-26 09:30:00,
2013-01-26 04:35:00,0.9,-5.7,30.09,ENE,67,0.0,0.0,73,0.00,,,0.00,WUHU21623XXSP,2013-01-26 09:35:00,
2013-01-26 04:40:00,1.0,-5.6,30.09,ENE,67,0.0,0.0,73,0.00,,,0.00,WUHU21623XXSP,2013-01-26 09:40:00,
2013-01-26 04:45:00,1.2,-5.1,30.10,ENE,67,0.0,0.0,74,0.00,,,0.00,WUHU21623XXSP,2013-01-26 09:45:00,
2013-01-26 04:50:00,1.2,-5.1,30.10,ENE,67,0.0,0.0,74,0.00,,,0.00,WUHU21623XXSP,2013-01-26 09:50:00,
2013-01-26 04:55:00,1.2,-5.1,30.10,ENE,67,0.0,0.0,74,0.00,,,0.00,WUHU21623XXSP,2013-01-26 09:55:00,
2013-01-26 05:00:00,1.0,-5.6,30.10,ENE,67,0.0,0.0,73,0.00,,,0.00,WUHU21623XXSP,2013-01-26 10:00:00,
2013-01-26 05:05:00,0.7,-5.9,30.10,ENE,67,3.1,3.1,73,0.00,,,0.00,WUHU21623XXSP,2013-01-26 10:05:00,
2013-01-26 05:10:00,0.7,-5.9,30.11,ENE,67,0.9,3.1,73,0.00,,,0.00,WUHU21623XXSP,2013-01-26 10:10:00,
2013-01-26 05:16:00,0.9,-5.7,30.11,ENE,67,0.0,2.9,73,0.00,,,0.00,WUHU21623XXSP,2013-01-26 10:16:00,
2013-01-26 05:21:00,0.9,-5.4,30.11,ENE,67,0.0,0.0,74,0.00,,,0.00,WUHU21623XXSP,2013-01-26 10:21:00,
2013-01-26 05:26:00,0.9,-5.7,30.12,ENE,67,0.0,0.0,73,0.00,,,0.00,WUHU21623XXSP,2013-01-26 10:26:00,
2013-01-26 05:31:00,0.7,-5.9,30.12,ENE,67,3.1,3.1,73,0.00,,,0.00,WUHU21623XXSP,2013-01-26 10:31:00,
2013-01-26 05:36:00,0.7,-5.6,30.11,ENE,67,4.0,4.5,74,0.00,,,0.00,WUHU21623XXSP,2013-01-26 10:36:00,
2013-01-26 05:41:00,0.5,-5.8,30.11,ENE,67,2.1,4.5,74,0.00,,,0.00,WUHU21623XXSP,2013-01-26 10:41:00,
2013-01-26 05:46:00,0.5,-6.1,30.12,SSE,157,0.0,3.6,73,0.00,,,0.00,WUHU21623XXSP,2013-01-26 10:46:00,
2013-01-26 05:51:00,0.3,-6.3,30.13,ENE,67,2.9,2.9,73,0.00,,,0.00,WUHU21623XXSP,2013-01-26 10:51:00,
2013-01-26 05:56:00,0.3,-6.0,30.13,ENE,67,2.6,2.9,74,0.00,,,0.00,WUHU21623XXSP,2013-01-26 10:56:00,
2013-01-26 06:01:00,0.3,-6.3,30.13,ENE,67,0.0,2.9,73,0.00,,,0.00,WUHU21623XXSP,2013-01-26 11:01:00,
2013-01-26 06:06:00,0.3,-6.3,30.13,ENE,67,0.0,2.5,73,0.00,,,0.00,WUHU21623XXSP,2013-01-26 11:06:00,
2013-01-26 06:11:00,0.3,-6.0,30.13,ENE,67,0.0,0.0,74,0.00,,,0.00,WUHU21623XXSP,2013-01-26 11:11:00,
2013-01-26 06:16:00,0.7,-5.6,30.13,ENE,67,2.7,2.9,74,0.00,,,0.00,WUHU21623XXSP,2013-01-26 11:16:00,
2013-01-26 06:21:00,0.7,-5.6,30.13,ENE,67,0.0,3.1,74,0.00,,,0.00,WUHU21623XXSP,2013-01-26 11:21:00,
2013-01-26 06:26:00,0.7,-5.6,30.13,ENE,67,0.0,3.1,74,0.00,,,0.00,WUHU21623XXSP,2013-01-26 11:26:00,
2013-01-26 06:31:00,0.7,-5.6,30.13,ENE,67,0.0,0.0,74,0.00,,,0.00,WUHU21623XXSP,2013-01-26 11:31:00,
2013-01-26 06:36:00,0.5,-5.8,30.14,ENE,67,0.0,0.0,74,0.00,,,0.00,WUHU21623XXSP,2013-01-26 11:36:00,
2013-01-26 06:41:00,0.5,-5.8,30.14,ENE,67,0.0,0.0,74,0.00,,,0.00,WUHU21623XXSP,2013-01-26 11:41:00,
2013-01-26 06:46:00,0.3,-6.0,30.14,ENE,67,0.0,0.0,74,0.00,,,0.00,WUHU21623XXSP,2013-01-26 11:46:00,
2013-01-26 06:51:00,0.5,-5.8,30.15,ENE,67,2.7,2.9,74,0.00,,,0.00,WUHU21623XXSP,2013-01-26 11:51:00,
2013-01-26 06:56:00,0.7,-5.6,30.15,ENE,67,1.0,2.9,74,0.00,,,0.00,WUHU21623XXSP,2013-01-26 11:56:00,
2013-01-26 07:01:00,0.7,-5.6,30.15,ENE,67,3.4,3.4,74,0.00,,,0.00,WUHU21623XXSP,2013-01-26 12:01:00,
2013-01-26 07:06:00,0.7,-5.6,30.15,ENE,67,3.1,4.0,74,0.00,,,0.00,WUHU21623XXSP,2013-01-26 12:06:00,
2013-01-26 07:11:00,1.0,-5.3,30.15,ENE,67,1.7,4.0,74,0.00,,,0.00,WUHU21623XXSP,2013-01-26 12:11:00,
2013-01-26 07:16:00,0.9,-5.4,30.15,ENE,67,0.0,2.7,74,0.00,,,0.00,WUHU21623XXSP,2013-01-26 12:16:00,
2013-01-26 07:21:00,0.9,-5.4,30.16,ENE,67,0.0,1.8,74,0.00,,,0.00,WUHU21623XXSP,2013-01-26 12:21:00,
2013-01-26 07:26:00,1.0,-5.3,30.16,ENE,67,0.0,0.0,74,0.00,,,0.00,WUHU21623XXSP,2013-01-26 12:26:00,
2013-01-26 07:31:00,1.2,-5.1,30.16,ENE,67,0.0,0.0,74,0.00,,,0.00,WUHU21623XXSP,2013-01-26 12:31:00,
2013-01-26 07:36:00,1.2,-5.1,30.16,ENE,67,0.0,0.0,74,0.00,,,0.00,WUHU21623XXSP,2013-01-26 12:36:00,
2013-01-26 07:41:00,1.2,-5.1,30.16,ENE,67,0.0,0.0,74,0.00,,,0.00,WUHU21623XXSP,2013-01-26 12:41:00,
2013-01-26 07:46:00,1.2,-5.1,30.17,ENE,67,2.5,2.9,74,0.00,,,0.00,WUHU21623XXSP,2013-01-26 12:46:00,
2013-01-26 07:51:00,1.4,-4.9,30.17,ENE,67,2.1,2.9,74,0.00,,,0.00,WUHU21623XXSP,2013-01-26 12:51:00,
2013-01-26 07:56:00,1.6,-4.7,30.18,ENE,67,1.9,2.7,74,0.00,,,0.00,WUHU21623XXSP,2013-01-26 12:56:00,
2013-01-26 08:01:00,1.9,-4.2,30.18,ENE,67,2.2,2.7,75,0.00,,,0.00,WUHU21623XXSP,2013-01-26 13:01:00,
2013-01-26 08:06:00,2.5,-3.6,30.18,ENE,67,2.1,2.7,75,0.00,,,0.00,WUHU21623XXSP,2013-01-26 13:06:00,
2013-01-26 08:11:00,3.6,-2.5,30.18,ENE,65,1.2,2.7,75,0.00,,,0.00,WUHU21623XXSP,2013-01-26 13:11:00,
2013-01-26 08:16:00,4.5,-1.4,30.18,NE,45,0.0,2.2,76,0.00,,,0.00,WUHU21623XXSP,2013-01-26 13:16:00,
2013-01-26 08:21:00,5.2,-0.7,30.18,NE,45,0.0,0.0,76,0.00,,,0.00,WUHU21623XXSP,2013-01-26 13:21:00,
2013-01-26 08:26:00,6.1,0.2,30.18,NE,45,0.0,0.0,76,0.00,,,0.00,WUHU21623XXSP,2013-01-26 13:26:00,
2013-01-26 08:31:00,6.6,0.7,30.17,NE,45,0.0,0.0,76,0.00,,,0.00,WUHU21623XXSP,2013-01-26 13:31:00,
2013-01-26 08:36:00,7.3,1.3,30.18,NE,45,0.0,0.0,76,0.00,,,0.00,WUHU21623XXSP,2013-01-26 13:36:00,
2013-01-26 08:41:00,7.7,1.7,30.18,NE,45,0.0,0.0,76,0.00,,,0.00,WUHU21623XXSP,2013-01-26 13:41:00,
2013-01-26 08:46:00,8.2,2.2,30.18,NE,45,0.0,0.0,76,0.00,,,0.00,WUHU21623XXSP,2013-01-26 13:46:00,
2013-01-26 08:51:00,9.0,3.0,30.18,NE,45,0.0,0.0,76,0.00,,,0.00,WUHU21623XXSP,2013-01-26 13:51:00,
2013-01-26 08:56:00,9.5,3.5,30.18,ENE,67,0.0,0.0,76,0.00,,,0.00,WUHU21623XXSP,2013-01-26 13:56:00,
2013-01-26 09:01:00,10.0,3.7,30.18,ENE,67,0.0,0.0,75,0.00,,,0.00,WUHU21623XXSP,2013-01-26 14:01:00,
2013-01-26 09:06:00,10.6,4.3,30.18,ENE,67,0.0,0.0,75,0.00,,,0.00,WUHU21623XXSP,2013-01-26 14:06:00,
2013-01-26 09:11:00,11.1,4.8,30.18,NE,45,0.0,0.0,75,0.00,,,0.00,WUHU21623XXSP,2013-01-26 14:11:00,
2013-01-26 09:16:00,11.5,5.1,30.18,NE,45,0.0,0.0,75,0.00,,,0.00,WUHU21623XXSP,2013-01-26 14:16:00,
2013-01-26 09:21:00,11.7,5.3,30.18,SE,135,0.0,0.0,75,0.00,,,0.00,WUHU21623XXSP,2013-01-26 14:21:00,
2013-01-26 09:26:00,12.0,5.3,30.18,SE,135,0.0,0.0,74,0.00,,,0.00,WUHU21623XXSP,2013-01-26 14:26:00,
2013-01-26 09:31:00,12.4,5.7,30.19,SW,225,0.0,0.0,74,0.00,,,0.00,WUHU21623XXSP,2013-01-26 14:31:00,
2013-01-26 09:36:00,12.6,5.6,30.19,SW,225,0.0,0.0,73,0.00,,,0.00,WUHU21623XXSP,2013-01-26 14:36:00,
2013-01-26 09:41:00,13.1,6.1,30.19,SW,225,1.6,2.2,73,0.00,,,0.00,WUHU21623XXSP,2013-01-26 14:41:00,
2013-01-26 09:46:00,13.6,6.6,30.20,SW,225,0.8,2.9,73,0.00,,,0.00,WUHU21623XXSP,2013-01-26 14:46:00,
2013-01-26 09:51:00,14.2,7.2,30.20,WNW,292,0.0,2.9,73,0.00,,,0.00,WUHU21623XXSP,2013-01-26 14:51:00,
2013-01-26 09:56:00,14.5,7.2,30.21,WNW,292,0.0,0.7,72,0.00,,,0.00,WUHU21623XXSP,2013-01-26 14:56:00,
2013-01-26 10:01:00,14.7,7.0,30.21,NW,315,1.9,2.7,71,0.00,,,0.00,WUHU21623XXSP,2013-01-26 15:01:00,
2013-01-26 10:06:00,14.7,6.7,30.21,NNW,329,2.3,3.6,70,0.00,,,0.00,WUHU21623XXSP,2013-01-26 15:06:00,
2013-01-26 10:11:00,14.9,6.9,30.21,NNW,337,1.7,3.6,70,0.00,,,0.00,WUHU21623XXSP,2013-01-26 15:11:00,
2013-01-26 10:16:00,15.3,7.0,30.21,NNW,337,0.0,2.7,69,0.00,,,0.00,WUHU21623XXSP,2013-01-26 15:16:00,
2013-01-26 10:21:00,15.6,7.3,30.21,NNW,337,0.0,0.9,69,0.00,,,0.00,WUHU21623XXSP,2013-01-26 15:21:00,
2013-01-26 10:26:00,16.2,7.9,30.21,NNW,343,1.3,2.0,69,0.00,,,0.00,WUHU21623XXSP,2013-01-26 15:26:00,
2013-01-26 10:31:00,16.3,7.6,30.21,North,0,0.0,2.0,68,0.00,,,0.00,WUHU21623XXSP,2013-01-26 15:31:00,
2013-01-26 10:36:00,16.7,7.7,30.20,NE,45,0.0,2.5,67,0.00,,,0.00,WUHU21623XXSP,2013-01-26 15:36:00,
2013-01-26 10:42:00,16.7,7.4,30.20,NE,45,1.2,2.5,66,0.00,,,0.00,WUHU21623XXSP,2013-01-26 15:42:00,
2013-01-26 10:47:00,16.9,7.6,30.21,ENE,59,1.2,2.2,66,0.00,,,0.00,WUHU21623XXSP,2013-01-26 15:47:00,
2013-01-26 10:52:00,17.8,8.1,30.21,North,354,2.6,4.0,65,0.00,,,0.00,WUHU21623XXSP,2013-01-26 15:52:00,
2013-01-26 10:57:00,18.3,8.2,30.21,North,355,2.3,4.0,64,0.00,,,0.00,WUHU21623XXSP,2013-01-26 15:57:00,
2013-01-26 11:03:00,19.0,8.5,30.21,WSW,247,2.7,4.7,63,0.00,,,0.00,WUHU21623XXSP,2013-01-26 16:03:00,
2013-01-26 11:08:00,19.4,8.9,30.21,North,0,3.4,4.7,63,0.00,,,0.00,WUHU21623XXSP,2013-01-26 16:08:00,
2013-01-26 11:14:00,19.8,8.9,30.21,NNW,337,2.7,6.0,62,0.00,,,0.00,WUHU21623XXSP,2013-01-26 16:14:00,
2013-01-26 11:18:00,19.8,8.9,30.21,NNE,22,3.8,5.4,62,0.00,,,0.00,WUHU21623XXSP,2013-01-26 16:18:00,
2013-01-26 11:24:00,19.6,8.7,30.21,North,0,2.7,4.7,62,0.00,,,0.00,WUHU21623XXSP,2013-01-26 16:24:00,
2013-01-26 11:28:00,19.8,8.9,30.21,WSW,247,4.0,4.7,62,0.00,,,0.00,WUHU21623XXSP,2013-01-26 16:28:00,
2013-01-26 11:34:00,20.3,9.4,30.21,SW,214,1.7,4.0,62,0.00,,,0.00,WUHU21623XXSP,2013-01-26 16:34:00,
2013-01-26 11:39:00,21.0,10.1,30.21,West,270,0.0,5.8,62,0.00,,,0.00,WUHU21623XXSP,2013-01-26 16:39:00,
2013-01-26 11:44:00,21.6,9.9,30.21,NW,309,2.7,5.8,60,0.00,,,0.00,WUHU21623XXSP,2013-01-26 16:44:00,
2013-01-26 11:49:00,21.9,9.8,30.21,NNW,345,2.9,5.8,59,0.00,,,0.00,WUHU21623XXSP,2013-01-26 16:49:00,
2013-01-26 11:54:00,22.6,10.4,30.21,North,0,2.9,5.8,59,0.00,,,0.00,WUHU21623XXSP,2013-01-26 16:54:00,
2013-01-26 11:59:00,23.0,10.0,30.21,North,0,4.5,6.7,57,0.00,,,0.00,WUHU21623XXSP,2013-01-26 16:59:00,
2013-01-26 12:04:00,22.6,9.7,30.21,North,350,3.8,6.7,57,0.00,,,0.00,WUHU21623XXSP,2013-01-26 17:04:00,
2013-01-26 12:09:00,22.3,9.4,30.21,South,180,1.6,5.8,57,0.00,,,0.00,WUHU21623XXSP,2013-01-26 17:09:00,
2013-01-26 12:14:00,22.8,9.4,30.21,NNW,337,3.6,6.3,56,0.00,,,0.00,WUHU21623XXSP,2013-01-26 17:14:00,
2013-01-26 12:19:00,23.5,10.1,30.21,North,358,2.8,7.4,56,0.00,,,0.00,WUHU21623XXSP,2013-01-26 17:19:00,
2013-01-26 12:24:00,24.4,10.5,30.21,NNW,335,3.1,7.4,55,0.00,,,0.00,WUHU21623XXSP,2013-01-26 17:24:00,
2013-01-26 12:29:00,25.0,11.1,30.21,NNW,337,3.8,5.6,55,0.00,,,0.00,WUHU21623XXSP,2013-01-26 17:29:00,
2013-01-26 12:34:00,25.2,10.9,30.21,North,0,3.4,5.6,54,0.00,,,0.00,WUHU21623XXSP,2013-01-26 17:34:00,
2013-01-26 12:39:00,25.2,10.9,30.21,NNW,337,4.5,5.6,54,0.00,,,0.00,WUHU21623XXSP,2013-01-26 17:39:00,
2013-01-26 12:44:00,25.0,10.2,30.21,NNW,330,4.0,5.4,53,0.00,,,0.00,WUHU21623XXSP,2013-01-26 17:44:00,
2013-01-26 12:49:00,24.4,9.7,30.22,NNW,337,4.3,5.6,53,0.00,,,0.00,WUHU21623XXSP,2013-01-26 17:49:00,
2013-01-26 12:54:00,23.7,9.0,30.22,NNW,330,4.7,6.7,53,0.00,,,0.00,WUHU21623XXSP,2013-01-26 17:54:00,
2013-01-26 12:59:00,23.4,8.7,30.22,NNW,337,5.1,7.6,53,0.00,,,0.00,WUHU21623XXSP,2013-01-26 17:59:00,
2013-01-26 13:04:00,23.5,8.8,30.22,NNW,337,7.2,7.2,53,0.00,,,0.00,WUHU21623XXSP,2013-01-26 18:04:00,
2013-01-26 13:09:00,23.5,8.8,30.23,NNW,344,4.4,7.2,53,0.00,,,0.00,WUHU21623XXSP,2013-01-26 18:09:00,
2013-01-26 13:14:00,23.4,8.7,30.23,NNW,347,3.6,6.7,53,0.00,,,0.00,WUHU21623XXSP,2013-01-26 18:14:00,
2013-01-26 13:20:00,23.4,8.7,30.23,North,0,3.6,6.7,53,0.00,,,0.00,WUHU21623XXSP,2013-01-26 18:20:00,
2013-01-26 13:25:00,23.5,8.8,30.22,NW,315,4.0,4.9,53,0.00,,,0.00,WUHU21623XXSP,2013-01-26 18:25:00,
2013-01-26 13:30:00,23.7,8.6,30.22,North,349,3.6,4.9,52,0.00,,,0.00,WUHU21623XXSP,2013-01-26 18:30:00,
2013-01-26 13:35:00,23.7,8.6,30.22,NNW,337,2.5,4.9,52,0.00,,,0.00,WUHU21623XXSP,2013-01-26 18:35:00,
2013-01-26 13:40:00,23.9,8.8,30.23,NNW,339,3.6,4.5,52,0.00,,,0.00,WUHU21623XXSP,2013-01-26 18:40:00,
2013-01-26 13:45:00,24.1,9.0,30.23,WNW,292,2.4,4.5,52,0.00,,,0.00,WUHU21623XXSP,2013-01-26 18:45:00,
2013-01-26 13:50:00,24.1,9.0,30.23,NNW,337,2.9,4.5,52,0.00,,,0.00,WUHU21623XXSP,2013-01-26 18:50:00,
2013-01-26 13:55:00,24.1,9.0,30.23,North,356,3.1,7.4,52,0.00,,,0.00,WUHU21623XXSP,2013-01-26 18:55:00,
2013-01-26 14:00:00,24.1,9.0,30.23,North,0,2.0,7.4,52,0.00,,,0.00,WUHU21623XXSP,2013-01-26 19:00:00,
2013-01-26 14:05:00,24.4,9.2,30.23,NW,323,4.3,5.6,52,0.00,,,0.00,WUHU21623XXSP,2013-01-26 19:05:00,
2013-01-26 14:10:00,24.4,9.7,30.23,NNW,342,2.6,5.6,53,0.00,,,0.00,WUHU21623XXSP,2013-01-26 19:10:00,
2013-01-26 14:15:00,24.4,9.7,30.23,West,274,2.1,5.6,53,0.00,,,0.00,WUHU21623XXSP,2013-01-26 19:15:00,
2013-01-26 14:20:00,24.1,9.0,30.24,NW,313,3.9,5.8,52,0.00,,,0.00,WUHU21623XXSP,2013-01-26 19:20:00,
2013-01-26 14:25:00,23.7,9.0,30.24,NNW,339,3.2,5.8,53,0.00,,,0.00,WUHU21623XXSP,2013-01-26 19:25:00,
2013-01-26 14:30:00,23.4,8.7,30.24,NNW,347,4.0,5.1,53,0.00,,,0.00,WUHU21623XXSP,2013-01-26 19:30:00,
2013-01-26 14:35:00,23.2,9.0,30.24,NNE,22,4.7,5.1,54,0.00,,,0.00,WUHU21623XXSP,2013-01-26 19:35:00,
2013-01-26 14:40:00,22.8,8.6,30.24,NNW,337,2.5,4.9,54,0.00,,,0.00,WUHU21623XXSP,2013-01-26 19:40:00,
2013-01-26 14:45:00,22.8,8.6,30.24,NNW,347,2.6,4.3,54,0.00,,,0.00,WUHU21623XXSP,2013-01-26 19:45:00,
2013-01-26 14:50:00,22.8,8.6,30.24,NNW,332,2.9,4.7,54,0.00,,,0.00,WUHU21623XXSP,2013-01-26 19:50:00,
2013-01-26 14:55:00,22.8,8.6,30.24,NNW,332,3.0,5.6,54,0.00,,,0.00,WUHU21623XXSP,2013-01-26 19:55:00,
2013-01-26 15:00:00,22.6,8.4,30.24,NW,318,2.8,5.6,54,0.00,,,0.00,WUHU21623XXSP,2013-01-26 20:00:00,
2013-01-26 15:05:00,22.3,8.6,30.25,NNE,22,3.1,4.7,55,0.00,,,0.00,WUHU21623XXSP,2013-01-26 20:05:00,
2013-01-26 15:10:00,21.9,8.2,30.25,North,353,2.6,5.4,55,0.00,,,0.00,WUHU21623XXSP,2013-01-26 20:10:00,
2013-01-26 15:15:00,21.6,7.9,30.25,North,353,2.3,5.4,55,0.00,,,0.00,WUHU21623XXSP,2013-01-26 20:15:00,
2013-01-26 15:20:00,21.6,7.9,30.25,NNW,339,3.1,4.0,55,0.00,,,0.00,WUHU21623XXSP,2013-01-26 20:20:00,
2013-01-26 15:25:00,21.7,8.4,30.25,NNW,337,2.5,4.3,56,0.00,,,0.00,WUHU21623XXSP,2013-01-26 20:25:00,
2013-01-26 15:30:00,21.6,8.3,30.25,NNW,337,2.7,4.3,56,0.00,,,0.00,WUHU21623XXSP,2013-01-26 20:30:00,
2013-01-26 15:35:00,21.4,8.1,30.25,NNW,337,2.0,3.4,56,0.00,,,0.00,WUHU21623XXSP,2013-01-26 20:35:00,
2013-01-26 15:40:00,21.4,8.1,30.25,NNW,337,1.8,4.3,56,0.00,,,0.00,WUHU21623XXSP,2013-01-26 20:40:00,
2013-01-26 15:45:00,21.0,7.8,30.25,NNW,337,2.1,4.3,56,0.00,,,0.00,WUHU21623XXSP,2013-01-26 20:45:00,
2013-01-26 15:50:00,20.8,7.6,30.25,NNW,337,1.8,3.6,56,0.00,,,0.00,WUHU21623XXSP,2013-01-26 20:50:00,
2013-01-26 15:55:00,20.5,7.3,30.25,NNW,337,1.2,3.6,56,0.00,,,0.00,WUHU21623XXSP,2013-01-26 20:55:00,
2013-01-26 16:00:00,20.3,7.1,30.25,NNW,337,2.0,4.0,56,0.00,,,0.00,WUHU21623XXSP,2013-01-26 21:00:00,
2013-01-26 16:05:00,19.9,7.1,30.25,NNW,337,1.0,4.0,57,0.00,,,0.00,WUHU21623XXSP,2013-01-26 21:05:00,
2013-01-26 16:10:00,19.6,6.8,30.25,NNW,337,1.0,2.2,57,0.00,,,0.00,WUHU21623XXSP,2013-01-26 21:10:00,
2013-01-26 16:15:00,19.2,6.5,30.25,NNW,337,2.5,4.0,57,0.00,,,0.00,WUHU21623XXSP,2013-01-26 21:15:00,
2013-01-26 16:20:00,19.0,6.7,30.26,NNW,337,1.6,4.0,58,0.00,,,0.00,WUHU21623XXSP,2013-01-26 21:20:00,
2013-01-26 16:25:00,18.5,6.2,30.26,NNW,337,1.6,3.4,58,0.00,,,0.00,WUHU21623XXSP,2013-01-26 21:25:00,
2013-01-26 16:30:00,18.1,5.8,30.26,NNW,337,0.0,2.9,58,0.00,,,0.00,WUHU21623XXSP,2013-01-26 21:30:00,
2013-01-26 16:35:00,17.8,5.9,30.26,NNW,337,0.0,1.8,59,0.00,,,0.00,WUHU21623XXSP,2013-01-26 21:35:00,
2013-01-26 16:40:00,17.2,5.3,30.26,NNW,337,0.0,0.0,59,0.00,,,0.00,WUHU21623XXSP,2013-01-26 21:40:00,
2013-01-26 16:45:00,16.7,4.9,30.27,NNW,337,1.3,1.3,59,0.00,,,0.00,WUHU21623XXSP,2013-01-26 21:45:00,
2013-01-26 16:50:00,16.0,4.6,30.27,North,350,1.9,2.7,60,0.00,,,0.00,WUHU21623XXSP,2013-01-26 21:50:00,
2013-01-26 16:55:00,15.4,4.0,30.27,NNE,22,1.1,2.9,60,0.00,,,0.00,WUHU21623XXSP,2013-01-26 21:55:00,
2013-01-26 17:00:00,14.9,3.9,30.27,NNE,22,0.9,2.9,61,0.00,,,0.00,WUHU21623XXSP,2013-01-26 22:00:00,
2013-01-26 17:05:00,14.2,2.9,30.27,NNE,22,0.0,2.7,60,0.00,,,0.00,WUHU21623XXSP,2013-01-26 22:05:00,
2013-01-26 17:10:00,13.1,1.8,30.27,NE,45,2.5,2.5,60,0.00,,,0.00,WUHU21623XXSP,2013-01-26 22:10:00,
2013-01-26 17:15:00,12.4,1.5,30.27,NE,45,2.5,2.7,61,0.00,,,0.00,WUHU21623XXSP,2013-01-26 22:15:00,
2013-01-26 17:20:00,11.5,0.7,30.27,NE,45,2.7,2.9,61,0.00,,,0.00,WUHU21623XXSP,2013-01-26 22:20:00,
2013-01-26 17:25:00,10.6,0.2,30.27,NE,45,0.9,2.9,62,0.00,,,0.00,WUHU21623XXSP,2013-01-26 22:25:00,
2013-01-26 17:30:00,10.0,-0.4,30.27,NE,45,0.0,2.7,62,0.00,,,0.00,WUHU21623XXSP,2013-01-26 22:30:00,
2013-01-26 17:35:00,9.1,-1.2,30.28,ENE,67,2.9,4.0,62,0.00,,,0.00,WUHU21623XXSP,2013-01-26 22:35:00,
2013-01-26 17:40:00,8.8,-0.9,30.28,ENE,67,3.2,4.0,64,0.00,,,0.00,WUHU21623XXSP,2013-01-26 22:40:00,
2013-01-26 17:46:00,8.4,-1.2,30.28,ENE,67,3.1,4.0,64,0.00,,,0.00,WUHU21623XXSP,2013-01-26 22:46:00,
2013-01-26 17:51:00,8.2,-1.1,30.28,ENE,67,3.4,4.0,65,0.00,,,0.00,WUHU21623XXSP,2013-01-26 22:51:00,
2013-01-26 17:56:00,7.9,-1.4,30.28,ENE,67,3.0,4.0,65,0.00,,,0.00,WUHU21623XXSP,2013-01-26 22:56:00,
2013-01-26 18:01:00,7.9,-1.1,30.29,ENE,67,2.9,4.0,66,0.00,,,0.00,WUHU21623XXSP,2013-01-26 23:01:00,
2013-01-26 18:06:00,7.5,-1.1,30.29,ENE,67,2.8,3.6,67,0.00,,,0.00,WUHU21623XXSP,2013-01-26 23:06:00,
2013-01-26 18:11:00,7.3,-1.6,30.29,ENE,67,0.0,3.6,66,0.00,,,0.00,WUHU21623XXSP,2013-01-26 23:11:00,
2013-01-26 18:16:00,7.2,-1.7,30.29,ENE,67,0.0,1.6,66,0.00,,,0.00,WUHU21623XXSP,2013-01-26 23:16:00,
2013-01-26 18:21:00,7.0,-1.6,30.29,ENE,67,0.0,0.0,67,0.00,,,0.00,WUHU21623XXSP,2013-01-26 23:21:00,
2013-01-26 18:26:00,6.6,-2.0,30.29,ENE,67,0.0,0.0,67,0.00,,,0.00,WUHU21623XXSP,2013-01-26 23:26:00,
2013-01-26 18:31:00,6.4,-2.2,30.29,ENE,67,1.6,2.5,67,0.00,,,0.00,WUHU21623XXSP,2013-01-26 23:31:00,
2013-01-26 18:36:00,6.1,-2.5,30.29,ENE,67,1.1,2.5,67,0.00,,,0.00,WUHU21623XXSP,2013-01-26 23:36:00,
2013-01-26 18:41:00,6.1,-2.2,30.29,ENE,67,2.7,3.1,68,0.00,,,0.00,WUHU21623XXSP,2013-01-26 23:41:00,
2013-01-26 18:46:00,6.1,-2.2,30.29,ENE,67,0.8,3.1,68,0.00,,,0.00,WUHU21623XXSP,2013-01-26 23:46:00,
2013-01-26 18:51:00,6.1,-2.2,30.30,ENE,67,0.0,2.7,68,0.00,,,0.00,WUHU21623XXSP,2013-01-26 23:51:00,
2013-01-26 18:56:00,6.1,-2.2,30.30,ENE,67,0.0,0.0,68,0.00,,,0.00,WUHU21623XXSP,2013-01-26 23:56:00,
2013-01-26 19:01:00,5.9,-2.3,30.30,ENE,67,0.0,0.0,68,0.00,,,0.00,WUHU21623XXSP,2013-01-27 00:01:00,
2013-01-26 19:06:00,5.7,-2.2,30.30,ENE,67,0.0,0.0,69,0.00,,,0.00,WUHU21623XXSP,2013-01-27 00:06:00,
2013-01-26 19:11:00,5.5,-2.4,30.30,ENE,67,0.0,0.0,69,0.00,,,0.00,WUHU21623XXSP,2013-01-27 00:11:00,
2013-01-26 19:17:00,5.5,-2.4,30.31,ENE,67,2.3,3.1,69,0.00,,,0.00,WUHU21623XXSP,2013-01-27 00:17:00,
2013-01-26 19:22:00,5.5,-2.4,30.31,ENE,67,2.0,3.1,69,0.00,,,0.00,WUHU21623XXSP,2013-01-27 00:22:00,
2013-01-26 19:28:00,5.7,-1.9,30.31,ENE,67,0.0,2.0,70,0.00,,,0.00,WUHU21623XXSP,2013-01-27 00:28:00,
2013-01-26 19:33:00,5.7,-1.9,30.31,ENE,67,0.0,1.1,70,0.00,,,0.00,WUHU21623XXSP,2013-01-27 00:33:00,
2013-01-26 19:38:00,5.7,-1.9,30.31,ENE,67,0.0,0.0,70,0.00,,,0.00,WUHU21623XXSP,2013-01-27 00:38:00,
2013-01-26 19:43:00,5.5,-2.1,30.31,ENE,67,0.0,0.0,70,0.00,,,0.00,WUHU21623XXSP,2013-01-27 00:43:00,
2013-01-26 19:48:00,5.5,-2.1,30.31,ENE,67,0.0,0.0,70,0.00,,,0.00,WUHU21623XXSP,2013-01-27 00:48:00,
2013-01-26 19:53:00,5.5,-2.1,30.31,ENE,67,0.0,0.0,70,0.00,,,0.00,WUHU21623XXSP,2013-01-27 00:53:00,
2013-01-26 19:58:00,5.4,-2.2,30.31,ENE,67,0.0,0.0,70,0.00,,,0.00,WUHU21623XXSP,2013-01-27 00:58:00,
2013-01-26 20:03:00,5.4,-2.2,30.31,ENE,67,0.0,0.0,70,0.00,,,0.00,WUHU21623XXSP,2013-01-27 01:03:00,
2013-01-26 20:08:00,5.5,-1.8,30.31,ENE,67,0.0,0.0,71,0.00,,,0.00,WUHU21623XXSP,2013-01-27 01:08:00,
2013-01-26 20:13:00,5.9,-1.4,30.31,ENE,67,0.0,0.0,71,0.00,,,0.00,WUHU21623XXSP,2013-01-27 01:13:00,
2013-01-26 20:18:00,6.4,-0.7,30.32,ENE,67,0.0,0.0,72,0.00,,,0.00,WUHU21623XXSP,2013-01-27 01:18:00,
2013-01-26 20:23:00,6.4,-0.7,30.31,ENE,67,0.0,0.0,72,0.00,,,0.00,WUHU21623XXSP,2013-01-27 01:23:00,
2013-01-26 20:28:00,6.4,-0.7,30.32,ENE,67,0.0,0.0,72,0.00,,,0.00,WUHU21623XXSP,2013-01-27 01:28:00,
2013-01-26 20:33:00,6.4,-0.7,30.32,ENE,67,0.0,0.0,72,0.00,,,0.00,WUHU21623XXSP,2013-01-27 01:33:00,
2013-01-26 20:38:00,6.4,-0.7,30.32,ENE,67,0.0,0.0,72,0.00,,,0.00,WUHU21623XXSP,2013-01-27 01:38:00,
2013-01-26 20:43:00,6.6,-0.5,30.32,ENE,67,0.0,0.0,72,0.00,,,0.00,WUHU21623XXSP,2013-01-27 01:43:00,
2013-01-26 20:48:00,6.6,-0.5,30.33,ENE,67,0.0,0.0,72,0.00,,,0.00,WUHU21623XXSP,2013-01-27 01:48:00,
2013-01-26 20:53:00,6.6,-0.5,30.33,ENE,67,0.0,0.0,72,0.00,,,0.00,WUHU21623XXSP,2013-01-27 01:53:00,
2013-01-26 20:58:00,6.6,-0.5,30.33,ENE,67,0.0,0.0,72,0.00,,,0.00,WUHU21623XXSP,2013-01-27 01:58:00,
2013-01-26 21:03:00,6.6,-0.5,30.33,ENE,67,0.0,0.0,72,0.00,,,0.00,WUHU21623XXSP,2013-01-27 02:03:00,
2013-01-26 21:08:00,6.6,-0.2,30.33,ENE,67,0.0,0.0,73,0.00,,,0.00,WUHU21623XXSP,2013-01-27 02:08:00,
2013-01-26 21:13:00,6.8,0.0,30.33,ENE,67,0.0,0.0,73,0.00,,,0.00,WUHU21623XXSP,2013-01-27 02:13:00,
2013-01-26 21:18:00,7.0,0.2,30.33,ENE,67,0.0,0.0,73,0.00,,,0.00,WUHU21623XXSP,2013-01-27 02:18:00,
2013-01-26 21:23:00,7.0,0.2,30.33,ENE,67,0.0,0.0,73,0.00,,,0.00,WUHU21623XXSP,2013-01-27 02:23:00,
2013-01-26 21:28:00,7.0,0.2,30.33,ENE,67,0.0,0.0,73,0.00,,,0.00,WUHU21623XXSP,2013-01-27 02:28:00,
2013-01-26 21:33:00,7.0,0.2,30.34,ENE,67,2.8,3.1,73,0.00,,,0.00,WUHU21623XXSP,2013-01-27 02:33:00,
2013-01-26 21:38:00,7.5,0.7,30.34,ENE,67,1.4,3.6,73,0.00,,,0.00,WUHU21623XXSP,2013-01-27 02:38:00,
2013-01-26 21:43:00,8.1,1.6,30.34,ENE,67,0.0,3.6,74,0.00,,,0.00,WUHU21623XXSP,2013-01-27 02:43:00,
2013-01-26 21:48:00,8.6,2.0,30.34,ENE,67,0.0,0.4,74,0.00,,,0.00,WUHU21623XXSP,2013-01-27 02:48:00,
2013-01-26 21:53:00,9.3,2.7,30.34,ENE,67,1.2,2.9,74,0.00,,,0.00,WUHU21623XXSP,2013-01-27 02:53:00,
2013-01-26 21:58:00,10.0,3.4,30.34,ENE,67,0.0,2.9,74,0.00,,,0.00,WUHU21623XXSP,2013-01-27 02:58:00,
2013-01-26 22:03:00,10.6,4.0,30.34,ENE,67,0.0,0.0,74,0.00,,,0.00,WUHU21623XXSP,2013-01-27 03:03:00,
2013-01-26 22:08:00,11.1,4.8,30.34,ENE,67,0.0,0.0,75,0.00,,,0.00,WUHU21623XXSP,2013-01-27 03:08:00,
2013-01-26 22:13:00,11.3,4.9,30.34,ENE,67,0.0,0.0,75,0.00,,,0.00,WUHU21623XXSP,2013-01-27 03:13:00,
2013-01-26 22:18:00,11.8,5.4,30.34,ENE,67,0.0,0.0,75,0.00,,,0.00,WUHU21623XXSP,2013-01-27 03:18:00,
2013-01-26 22:23:00,12.2,5.8,30.34,ENE,67,0.0,0.0,75,0.00,,,0.00,WUHU21623XXSP,2013-01-27 03:23:00,
2013-01-26 22:28:00,12.7,6.0,30.35,ENE,67,0.0,0.0,74,0.00,,,0.00,WUHU21623XXSP,2013-01-27 03:28:00,
2013-01-26 22:33:00,12.9,6.2,30.34,ENE,67,0.0,0.0,74,0.00,,,0.00,WUHU21623XXSP,2013-01-27 03:33:00,
2013-01-26 22:38:00,13.3,6.6,30.35,ENE,67,0.0,0.0,74,0.00,,,0.00,WUHU21623XXSP,2013-01-27 03:38:00,
2013-01-26 22:43:00,13.6,6.9,30.35,ENE,67,0.0,0.0,74,0.00,,,0.00,WUHU21623XXSP,2013-01-27 03:43:00,
2013-01-26 22:48:00,13.6,6.9,30.35,ENE,67,0.0,0.0,74,0.00,,,0.00,WUHU21623XXSP,2013-01-27 03:48:00,
2013-01-26 22:53:00,14.2,7.5,30.35,ENE,67,0.0,0.0,74,0.00,,,0.00,WUHU21623XXSP,2013-01-27 03:53:00,
2013-01-26 22:58:00,14.4,7.7,30.35,ENE,67,0.0,0.0,74,0.00,,,0.00,WUHU21623XXSP,2013-01-27 03:58:00,
2013-01-26 23:03:00,14.5,7.8,30.35,ENE,67,0.0,0.0,74,0.00,,,0.00,WUHU21623XXSP,2013-01-27 04:03:00,
2013-01-26 23:08:00,14.9,8.1,30.35,NE,45,0.0,0.0,74,0.00,,,0.00,WUHU21623XXSP,2013-01-27 04:08:00,
2013-01-26 23:13:00,15.1,8.3,30.35,NE,45,0.0,0.0,74,0.00,,,0.00,WUHU21623XXSP,2013-01-27 04:13:00,
2013-01-26 23:18:00,15.1,8.3,30.35,NE,45,0.0,0.0,74,0.00,,,0.00,WUHU21623XXSP,2013-01-27 04:18:00,
2013-01-26 23:23:00,15.1,8.3,30.35,NE,45,0.0,0.0,74,0.00,,,0.00,WUHU21623XXSP,2013-01-27 04:23:00,
2013-01-26 23:28:00,15.1,8.3,30.36,NE,45,0.0,0.0,74,0.00,,,0.00,WUHU21623XXSP,2013-01-27 04:28:00,
2013-01-26 23:33:00,15.1,8.3,30.36,NE,45,0.0,0.0,74,0.00,,,0.00,WUHU21623XXSP,2013-01-27 04:33:00,
2013-01-26 23:38:00,15.4,8.6,30.36,NNE,22,0.0,0.0,74,0.00,,,0.00,WUHU21623XXSP,2013-01-27 04:38:00,
2013-01-26 23:43:00,15.6,8.8,30.36,North,0,0.0,0.0,74,0.00,,,0.00,WUHU21623XXSP,2013-01-27 04:43:00,
2013-01-26 23:48:00,15.8,9.3,30.36,NNW,337,0.0,0.0,75,0.00,,,0.00,WUHU21623XXSP,2013-01-27 04:48:00,
2013-01-26 23:53:00,16.0,9.5,30.36,NNE,22,0.0,0.0,75,0.00,,,0.00,WUHU21623XXSP,2013-01-27 04:53:00,
2013-01-26 23:58:00,16.2,9.7,30.36,NNE,22,0.0,0.0,75,0.00,,,0.00,WUHU21623XXSP,2013-01-27 04:58:00,